Showing default

COSMOS 2558, 53323

Orbit data source: Space-Track

COSMOS 2558, 53323 is a payload satellite owned by TS VS RF (CIS) in SSO that was launched on Mon, 01 Aug 2022 UTC via a SOYUZ-2-1V launch vehicle from the Plesetsk Missile And Space Complex (PKMTR). Payload-class satellites include a variety of spacecraft equipped with specific instruments for various scientific and technological missions. These include communications satellites like Starlink; space stations such as the ISS; scientific satellites like the Hubble; Earth observation satellites from companies like Planet Labs, Umbra, and HawkEye 360; GPS; miniature CubeSats for education and research; and military/defense satellites.

Not visible in the next 10 days
Identifier
53323, 2022-089A
Orbit
SSO
Country
Flag of CISCIS
Related business
Manufacturer
Lavochkin
Mission
Operational Defense Technology
Bus & Motor
KARAT-200, Unknown motor
Mass
547 kg wet, ~400 kg dry
Launch date (UTC)
2022-08-01 (4 years ago)
Launch vehicle
SOYUZ-2-1V
Launch site
Plesetsk Missile And Space Complex (PKMTR)
Object type
Payload
Rocket body
Debris
Shape & HBR
Cyl + 2 Pan, 1.5 m
Radar Cross Section
3.727 m², Large (>1 m²)

Expand to show TLE details & history
Last TLE update: 4 days ago

TLE from 4 days ago
0 COSMOS 2558
1 53323U 22089A   26171.38576041  .00098710  00000-0  63943-3 0  9991
2 53323  97.2251 275.5817 0001456 235.4551 124.6578 15.75746772218331
Epoch: 2026-06-20T09:15Z
TLE epoch observation values (Epoch: 2026-06-20T09:15:29.699Z)
Latitude
0.00004°
Longitude
-131.89319°
Altitude
346.234 km
Speed
7.701 km/s
True Right ascension
18h 22m 19s
True Declination
0° 00' 00"
Sunlit
Object was in full shadow at epoch
Visualization orbit readout
Latitude
Unknown
Longitude
Unknown
Altitude
Unknown
Speed
Unknown
Apparent Right ascension
Unknown
Apparent Declination
Unknown
Sunlit
N/A
Visualization observer readout
Local Sidereal Time
20:46:12
Azimuth
Unknown
Elevation
Unknown
Doppler factor
Unknown
Orbital elements
Apogee altitude
340.369 km
Perigee altitude
338.413 km
Semi-major axis
6,717.528 km
Eccentricity
0.00015
Inclination
97.2251°
RAAN
275.5817°
Arg. of periapsis
235.4551°
True anomaly
124.67152°
Mean anomaly
124.6578°
Eccentric anomaly
124.66466°
Mean motion
3.94211 °/min
Orbital period
91.32 mins
BSTAR
0.00063943
Loading maneuver chart data...
Computing Atmospheric mass density...
Loading historical data...
Loading historical data...
Loading historical data...
Loading historical data...
Loading historical data...
Loading historical data...
Loading historical data...
Other satellites on launch #89 in the year 2022 (2022-08-01 UTC)

Documentation

Showing up to 5 results
|